Home > Weather > Fredericton > Past weeks

Flag for Canada Past Weather in Fredericton, New Brunswick, Canada — Yesterday and Last 2 Weeks

Now
81 °F

Sunny.


Feels Like: 81 °F
Forecast: 54 / 85 °F
Wind: 2 mph from North

Location: Fredericton

Current Time: Jun 26, 2016 at 12:26:49 PM

Latest Report: Jun 26, 2016 at 12:00 PM


Visibility: 9 mi

Pressure: 30.17 "Hg

Humidity: 45%

Dew Point: 57 °F

Location of FrederictonLocation

Past Weather in Fredericton — Graph

°F

Fredericton Temperature Yesterday

Maximum temperature yesterday: 82 °F (at 3:00 PM)
Minimum temperature yesterday: 45 °F (at 5:00 AM)
Average temperature yesterday: 66 °F

High & Low Weather Summary for the Past Weeks

 TemperatureHumidityPressure
High88 °F (Jun 19, 4:00 PM)100% (Jun 17, 4:00 AM)30.22 "Hg (Jun 17, 4:00 AM)
Low39 °F (Jun 17, 6:00 AM)18% (Jun 18, 5:00 PM)29.41 "Hg (Jun 13, 5:00 AM)
Average60 °F67%29.82 "Hg
* Reported Jun 11 11:00 AM — Jun 26 11:00 AM, Fredericton, Weather by CustomWeather, © 2016

Note: Actual official high and low records may vary slightly from our data, if they occured in-between our weather recording intervals... More about our weather records

Advertising

Fredericton Weather History for the Previous 24 Hours

Scroll right to see more
 ConditionsComfort  
Time TempWeatherWind HumidityBarometerVisibility
11:00 AM
Sun, Jun 26
75 °FSunny.2 mph50%30.19 "Hg9 mi
10:00 AM70 °FSunny.3 mph57%30.20 "Hg9 mi
9:00 AM64 °FSunny.5 mph64%30.21 "Hg9 mi
8:00 AM59 °FSunny.5 mph72%30.22 "Hg9 mi
7:00 AM55 °FSunny.5 mph88%30.22 "Hg9 mi
6:00 AM52 °FClear.6 mph88%30.21 "Hg9 mi
5:00 AM50 °FClear.No wind88%30.19 "Hg9 mi
4:00 AM52 °FClear.2 mph88%30.17 "Hg9 mi
3:00 AM55 °FClear.2 mph82%30.15 "Hg9 mi
2:00 AM57 °FClear.No wind77%30.16 "Hg9 mi
1:00 AM59 °FClear.5 mph72%30.18 "Hg9 mi
12:00 AM61 °FClear.7 mph72%30.18 "Hg9 mi
11:00 PM
Sat, Jun 25
61 °FClear.8 mph72%30.18 "Hg9 mi
10:00 PM68 °FSunny.8 mph56%30.16 "Hg9 mi
9:00 PM73 °FSunny.10 mph47%30.14 "Hg9 mi
8:00 PM79 °FSunny.13 mph42%30.13 "Hg9 mi
7:00 PM82 °FSunny.8 mph30%30.12 "Hg9 mi
6:00 PM82 °FSunny.10 mph30%30.13 "Hg9 mi
5:00 PM82 °FSunny.7 mph30%30.14 "Hg9 mi
4:00 PM82 °FSunny.12 mph32%30.14 "Hg9 mi
3:00 PM82 °FSunny.10 mph30%30.15 "Hg9 mi
2:00 PM81 °FSunny.9 mph34%30.16 "Hg9 mi
1:00 PM79 °FSunny.9 mph37%30.17 "Hg9 mi
12:00 PM77 °FSunny.6 mph42%30.19 "Hg9 mi
Weather by CustomWeather, © 2016

See weather overviewHow to use our weather pages